User: anonymous   Login
Location: Home
(51.5204°N, 2.5456°W)
Time: 10:54:17
(UTC+00:00)
Language:

SEEDS - Orbit

View from above orbital plane
View from above orbital plane
View from above satellite
View from above satellite

Ground track
Ground track

The orbit data is extracted from the following two-line orbital elements,

1 32791U 08021J   19344.54277579  .00000389  00000-0  44734-4 0  9996
2 32791  97.5323 342.2114 0013856  21.6969 338.4834 14.90928624630160
Epoch (UTC): 10 December 2019 13:01:35
Eccentricity: 0.0013856
inclination: 97.5323°
perigee height: 585 km
apogee height: 605 km
right ascension of ascending node: 342.2114°
argument of perigee: 21.6969°
revolutions per day: 14.90928624
mean anomaly at epoch: 338.4834°
orbit number at epoch: 63016

The dashed part of the orbit path shows where the satellite is in the earth's shadow,  

DLR